Content
SEND FEEDBACK

Daily
Averages
Monthly
Summary
United States of America

BUNCOM, OREGON


Home > North America > United States > Oregon
Elevation: 1930 feet     Latitude: 42 09N     Longitude: 122 58W

WEATHER
 
SELECT A DAY
Number of Records: 198,512;   Date Range: 1/1/95 - 8/12/14
 
SHARE

PRINT THIS DATA

[ ← Previous Day ]
WEATHER ALMANAC - JANUARY 3, 2013
[ Next Day → ]
[ °C ]   °F
Weather ElementAverageHighLow
Temperature28.8 °F46 °F (3:53 pm)21 °F (7:53 am)
Dewpoint24.2 °F32 °F (2:53 pm)17.6 °F (8:01 am)
Humidity84.2 %93 % (4:23 am)56 % (3:53 pm)
Barometer30.20 in30.35 in (9:53 pm)30.13 in (5:04 am)
Wind Speed1.5 mph4.6 mph (2:53 am)
Weather ElementAverage
Visibility6.4 mi
Wind DirectionENE (62.8 °)

Weather ElementTotal
Precipitation---
Heating Degree Days31.5 (Base 65)
Averaged from 36 records on January 3, 2013
WEATHER CONDITIONS BREAKOUT
WIND DIRECTION BREAKOUT
WEATHER BY HOUR - JANUARY 3, 2013
[ °C ]   °F
Local TimeTemperatureDewpointHumidityBarometerVisibilityWind DirectionWind SpeedGust SpeedPrecipitationEventsConditions
1:53 AM27.0 °F24.1 °F89 %30.18 in8.0 miCalmClear
2:53 AM24.1 °F21.9 °F91 %30.19 in7.0 miESE (120°)4.6 mphClear
3:53 AM24.1 °F21.0 °F88 %30.18 in6.0 miCalmClear
4:12 AM24.8 °F21.2 °F86 %30.15 in5.0 miCalmScattered Clouds
4:20 AM24.8 °F21.2 °F86 %30.14 in2.5 miCalmMostly Cloudy
4:23 AM23.0 °F21.2 °F93 %30.14 in0.8 miEast (90°)3.5 mphMist
4:30 AM23.0 °F21.2 °F93 %30.14 in0.8 miEast (90°)3.5 mphMist
4:33 AM24.8 °F21.2 °F86 %30.14 in2.5 miCalmMostly Cloudy
4:37 AM23.0 °F21.2 °F93 %30.14 in6.0 miCalmScattered Clouds
4:53 AM24.1 °F21.9 °F91 %30.17 in7.0 miWSW (240°)3.5 mphClear
5:04 AM24.8 °F21.2 °F86 %30.13 in2.5 miCalmClear
5:11 AM24.8 °F23.0 °F93 %30.13 in5.0 miSSW (210°)3.5 mphClear
5:53 AM23.0 °F19.9 °F88 %30.17 in7.0 miESE (110°)3.5 mphClear
6:53 AM21.9 °F19.9 °F92 %30.17 in6.0 miCalmClear
7:36 AM21.2 °F19.4 °F93 %30.15 in6.0 miCalmPartly Cloudy
7:53 AM21.0 °F18.0 °F88 %30.19 in6.0 miCalmPartly Cloudy
8:01 AM21.2 °F17.6 °F86 %30.16 in1.5 miVariable3.5 mphScattered Clouds
8:04 AM21.2 °F19.4 °F93 %30.16 in0.8 miCalmMist
8:09 AM21.2 °F19.4 °F93 %30.16 in2.0 miCalmMostly Cloudy
8:22 AM23.0 °F21.2 °F93 %30.16 in5.0 miNNE (30°)3.5 mphMostly Cloudy
8:53 AM25.0 °F21.9 °F88 %30.21 in5.0 miCalmOvercast
9:53 AM28.0 °F26.1 °F92 %30.23 in6.0 miCalmOvercast
10:53 AM33.1 °F28.0 °F82 %30.22 in10.0 miCalmClear
11:53 AM37.0 °F30.0 °F76 %30.20 in10.0 miCalmOvercast
12:53 PM39.9 °F30.9 °F70 %30.19 in10.0 miNNW (340°)3.5 mphMostly Cloudy
1:53 PM42.1 °F30.9 °F65 %30.20 in10.0 miNNW (330°)3.5 mphOvercast
2:53 PM45.0 °F32.0 °F60 %30.21 in10.0 miNE (40°)3.5 mphPartly Cloudy
3:53 PM46.0 °F30.9 °F56 %30.23 in10.0 miCalmClear
4:53 PM43.0 °F30.9 °F62 %30.25 in10.0 miSW (220°)3.5 mphClear
5:53 PM39.9 °F30.0 °F68 %30.26 in10.0 miSouth (170°)4.6 mphClear
6:53 PM36.0 °F30.0 °F79 %30.29 in10.0 miWest (270°)4.6 mphClear
7:53 PM34.0 °F28.0 °F79 %30.31 in10.0 miCalmPartly Cloudy
8:53 PM32.0 °F27.0 °F82 %30.33 in10.0 miCalmPartly Cloudy
9:53 PM30.9 °F27.0 °F85 %30.35 in7.0 miCalmClear
10:53 PM28.9 °F27.0 °F92 %30.35 in7.0 miCalmClear
11:53 PM28.4 °F26.6 °F93 %30.32 in7.0 miCalmClear
Hourly data recorded from KMFR, located miles away from Buncom, Oregon







STORIES FROM OUR PARTNERS